Simultaneous Nadir Overpasses (SNOs) Predictions

Prediction of SNOs between METOP-B and TERRA Satellite Orbit:

Table of predicted SNOs for the next 14.0 days since TLE Epoch: 3/1/2025
Index Date (METOP-B) Time (METOP-B) Lat,Lon (METOP-B) SZA (METOP-B ) Date (TERRA) Time (TERRA) Lat,Lon (TERRA) SZA (TERRA ) Distance(km) Time Diff (sec)
1 03/02/2025 04:01:06 78.89, 127.58 86.00 03/02/2025 04:01:56 78.88, 127.46 85.99 2.80 50
2 03/02/2025 04:51:42 -79.09, -63.77 93.80 03/02/2025 04:51:11 -79.10, -63.66 93.79 2.42 31
3 03/04/2025 17:40:51 -78.90, 102.66 94.99 03/04/2025 17:41:29 -78.89, 102.56 95.00 2.24 38
4 03/04/2025 18:31:25 79.13, -88.45 85.27 03/04/2025 18:30:42 79.14, -88.32 85.28 3.07 43
5 03/07/2025 07:20:35 78.89, 77.63 84.01 03/07/2025 07:21:00 78.89, 77.63 84.01 0.11 25
6 03/07/2025 08:11:06 -79.27,-112.45 95.57 03/07/2025 08:10:11 -79.26,-112.54 95.59 2.09 55
7 03/09/2025 21:00:20 -78.87, 52.55 97.01 03/09/2025 21:00:31 -78.88, 52.65 97.01 2.10 11
8 03/09/2025 21:50:51 79.21,-137.82 83.37 03/09/2025 21:49:42 79.22,-137.74 83.36 1.70 69
9 03/12/2025 09:52:00 -71.51,-163.50 104.53 03/12/2025 09:53:13 -71.23,-161.66 105.01 72.67 73
10 03/12/2025 10:40:00 78.95, 28.07 82.07 03/12/2025 10:39:57 78.95, 28.12 82.07 1.20 3
11 03/14/2025 23:29:11 78.62,-166.26 80.71 03/14/2025 23:30:13 78.62,-166.18 80.72 1.83 62



Historial Predications of SNOs between METOP-B and TERRA
